Location: Goheenville
(40.9070°N, 79.3720°W)
Time: 12:06:45
(UTC-05:00)

Cosmos 1727 Rocket - Visible Passes

Search period start: 22 December 2014 00:00
Search period end: 01 January 2015 00:00
Orbit: 962 x 996 km, 82.9° (Epoch: 20 December)

Date Brightness Start Highest point End Pass type
(mag) Time Alt. Az. Time Alt. Az. Time Alt. Az.
22 Dec 6.6 04:35:24 10° ESE 04:39:06 17° E 04:42:49 10° NE visible
22 Dec 3.9 06:17:33 10° SSW 06:23:46 72° W 06:30:05 10° N visible
22 Dec 4.2 17:14:09 10° N 17:20:32 87° W 17:26:52 10° S visible
22 Dec 6.9 19:02:41 10° WNW 19:04:57 12° WNW 19:07:12 10° W visible
23 Dec 5.7 04:59:43 10° SE 05:05:04 31° E 05:10:28 10° NNE visible
23 Dec 4.4 06:44:32 10° SW 06:50:19 39° WNW 06:56:12 10° N visible
23 Dec 5.2 17:40:46 10° NNW 17:46:49 48° W 17:52:49 10° SSW visible
24 Dec 4.6 05:25:08 10° SSE 05:31:12 57° E 05:37:22 10° NNE visible
24 Dec 6.2 18:07:50 10° NNW 18:12:55 26° W 18:17:58 10° SW visible
25 Dec 6.7 04:09:42 10° ESE 04:12:58 15° E 04:16:15 10° NE visible
25 Dec 3.9 05:51:17 10° S 05:57:32 79° W 06:03:53 10° N visible
25 Dec 6.8 18:35:54 10° NW 18:38:50 14° W 18:41:45 10° WSW visible
26 Dec 5.8 04:33:44 10° SE 04:38:54 28° E 04:44:07 10° NNE visible
26 Dec 4.3 06:18:09 10° SSW 06:24:04 43° WNW 06:30:04 10° N visible
27 Dec 4.7 04:59:00 10° SSE 05:05:01 52° E 05:11:07 10° NNE visible
27 Dec 4.9 06:45:49 10° WSW 06:50:47 24° WNW 06:55:49 10° NNW visible
27 Dec 6.1 17:41:28 10° NNW 17:46:46 29° W 17:52:02 10° SW visible
28 Dec 6.7 03:44:07 10° ESE 03:46:51 13° ENE 03:49:35 10° NE visible
28 Dec 3.9 05:25:03 10° S 05:31:19 87° W 05:37:41 10° N visible
28 Dec 6.7 18:09:16 10° NW 18:12:43 15° W 18:16:09 10° WSW visible
29 Dec 5.9 04:07:47 10° SE 04:12:45 25° E 04:17:45 10° NNE visible
29 Dec 4.2 05:51:47 10° SSW 05:57:49 48° WNW 06:03:55 10° N visible
30 Dec 4.9 04:32:54 10° SSE 04:38:50 47° E 04:44:51 10° NNE visible
30 Dec 4.8 06:19:18 10° SW 06:24:30 27° WNW 06:29:46 10° NNW visible
31 Dec 6.7 03:18:44 10° E 03:20:44 12° ENE 03:22:44 10° ENE visible
31 Dec 3.9 04:58:50 10° S 05:05:07 85° E 05:11:29 10° N visible
31 Dec 5.4 06:48:03 10° W 06:51:25 15° WNW 06:54:48 10° NNW visible
31 Dec 6.6 17:42:43 10° NW 17:46:35 17° W 17:50:26 10° WSW visible
